Find Starlink 30102

NORAD ID: 57434 Int'l Des: 2023-105 Owner: SPXS Country: US Constellation: starlink operational
LEOCIRCULAR

Live-Position

3D-Globus wird geladen...

Über Starlink 30102

Beschreibung wird geladen...

Nächste Überflüge

Passes for default location (London). Set your location on the main map for personalized predictions.

Höhenverlauf

Loading altitude history...

Zweizeiliger Elementsatz

1 57434U 23105E 26125.85317640 -.00001544 00000-0 -46595-4 0 9993
2 57434 43.0008 297.0728 0000055 112.6373 247.4484 15.27597875154276
Epoch: 5. Mai 2026 • Age: 8 hours

Aktueller Status

Höhe 494.9 km
Geschwindigkeit 7.62 km/s
Subsatellitenpunkt -39.58°S, 50.92°W
Startdatum 24. Juli 2023
Alter 2.7 years
Typ internet

Technische Details

Klassifizierung Payload
Masse 730.00 kg
Trockenmasse 700.00 kg
Gesamtmasse 730.00 kg
Länge 0.30 m
Durchmesser 4.10 m
Spannweite 29.00 m
Form Box + pan
Hersteller SPXS
Bus-Typ Starlink V2M
Phasenstatus In Orbit
Besitzer/Staat SPXS/US

Most Searched